Time,TemperatureF,DewpointF,PressureIn,WindDirection,WindDirectionDegrees,WindSpeedMPH,WindSpeedGustMPH,Humidity,HourlyPrecipIn,Conditions,Clouds,dailyrainin,SoftwareType,DateUTC
2013-03-25 00:00:00,26.3,20.1,30.08,SSE,155,5.0,29.0,77,0.00,,,0.29,WUHU216DAVISVP2,2013-03-25 05:00:00,
2013-03-25 00:05:00,26.2,19.7,30.08,SE,143,9.0,25.0,76,0.00,,,0.00,WUHU216DAVISVP2,2013-03-25 05:05:00,
2013-03-25 00:10:00,26.1,19.9,30.08,SE,141,13.0,23.0,77,0.00,,,0.00,WUHU216DAVISVP2,2013-03-25 05:10:00,
2013-03-25 00:15:00,26.1,19.6,30.08,SSE,147,5.0,23.0,76,0.00,,,0.00,WUHU216DAVISVP2,2013-03-25 05:15:00,
2013-03-25 00:20:00,26.1,19.6,30.08,SE,144,9.0,29.0,76,0.00,,,0.00,WUHU216DAVISVP2,2013-03-25 05:20:00,
2013-03-25 00:25:00,26.1,19.9,30.08,South,175,9.0,29.0,77,0.00,,,0.00,WUHU216DAVISVP2,2013-03-25 05:25:00,
2013-03-25 00:30:00,26.0,20.1,30.08,SSE,152,9.0,29.0,78,0.00,,,0.00,WUHU216DAVISVP2,2013-03-25 05:30:00,
2013-03-25 00:35:00,26.0,19.8,30.08,SE,133,9.0,29.0,77,0.00,,,0.00,WUHU216DAVISVP2,2013-03-25 05:35:00,
2013-03-25 00:40:00,26.0,19.2,30.08,SSE,157,18.0,24.0,75,0.00,,,0.00,WUHU216DAVISVP2,2013-03-25 05:40:00,
2013-03-25 00:45:00,25.8,19.0,30.08,SSE,163,6.0,24.0,75,0.00,,,0.00,WUHU216DAVISVP2,2013-03-25 05:45:00,
2013-03-25 00:50:00,25.6,19.1,30.08,SE,133,9.0,23.0,76,0.00,,,0.00,WUHU216DAVISVP2,2013-03-25 05:50:00,
2013-03-25 00:56:00,25.6,19.1,30.08,SE,126,8.0,23.0,76,0.00,,,0.00,WUHU216DAVISVP2,2013-03-25 05:56:00,
2013-03-25 01:01:00,25.3,19.1,30.07,SSE,155,2.0,17.0,77,0.00,,,0.00,WUHU216DAVISVP2,2013-03-25 06:01:00,
2013-03-25 01:06:00,25.1,19.2,30.07,SSE,150,7.0,17.0,78,0.00,,,0.00,WUHU216DAVISVP2,2013-03-25 06:06:00,
2013-03-25 01:11:00,25.0,19.1,30.07,SE,139,10.0,17.0,78,0.00,,,0.00,WUHU216DAVISVP2,2013-03-25 06:11:00,
2013-03-25 01:16:00,24.8,19.2,30.07,SSE,148,6.0,17.0,79,0.00,,,0.00,WUHU216DAVISVP2,2013-03-25 06:16:00,
2013-03-25 01:21:00,24.7,19.1,30.07,SSE,148,6.0,17.0,79,0.00,,,0.00,WUHU216DAVISVP2,2013-03-25 06:21:00,
2013-03-25 01:26:00,24.7,19.1,30.07,SE,142,11.0,17.0,79,0.00,,,0.00,WUHU216DAVISVP2,2013-03-25 06:26:00,
2013-03-25 01:31:00,24.5,18.9,30.07,SE,137,5.0,16.0,79,0.00,,,0.00,WUHU216DAVISVP2,2013-03-25 06:31:00,
2013-03-25 01:37:00,24.5,18.9,30.07,SE,144,5.0,15.0,79,0.00,,,0.00,WUHU216DAVISVP2,2013-03-25 06:37:00,
2013-03-25 01:42:00,24.3,19.0,30.07,SE,132,1.0,14.0,80,0.00,,,0.00,WUHU216DAVISVP2,2013-03-25 06:42:00,
2013-03-25 01:47:00,24.2,19.2,30.07,SSE,150,4.0,12.0,81,0.00,,,0.00,WUHU216DAVISVP2,2013-03-25 06:47:00,
2013-03-25 01:52:00,24.0,19.3,30.07,SE,127,4.0,11.0,82,0.00,,,0.00,WUHU216DAVISVP2,2013-03-25 06:52:00,
2013-03-25 01:57:00,23.8,19.1,30.07,SE,140,8.0,11.0,82,0.00,,,0.00,WUHU216DAVISVP2,2013-03-25 06:57:00,
2013-03-25 02:02:00,23.8,19.3,30.07,SE,127,5.0,11.0,83,0.00,,,0.00,WUHU216DAVISVP2,2013-03-25 07:02:00,
2013-03-25 02:07:00,23.5,19.0,30.07,SE,129,7.0,11.0,83,0.00,,,0.00,WUHU216DAVISVP2,2013-03-25 07:07:00,
2013-03-25 02:12:00,23.4,19.0,30.07,SE,129,3.0,11.0,83,0.00,,,0.00,WUHU216DAVISVP2,2013-03-25 07:12:00,
2013-03-25 02:17:00,23.3,18.9,30.07,SE,134,5.0,12.0,83,0.00,,,0.00,WUHU216DAVISVP2,2013-03-25 07:17:00,
2013-03-25 02:22:00,23.1,18.7,30.07,ESE,121,6.0,12.0,83,0.00,,,0.00,WUHU216DAVISVP2,2013-03-25 07:22:00,
2013-03-25 02:27:00,23.0,18.6,30.07,ESE,121,3.0,12.0,83,0.00,,,0.00,WUHU216DAVISVP2,2013-03-25 07:27:00,
2013-03-25 02:32:00,22.8,18.7,30.07,SE,125,3.0,12.0,84,0.00,,,0.00,WUHU216DAVISVP2,2013-03-25 07:32:00,
2013-03-25 02:37:00,22.7,18.6,30.07,SE,140,4.0,10.0,84,0.00,,,0.00,WUHU216DAVISVP2,2013-03-25 07:37:00,
2013-03-25 02:42:00,22.6,18.5,30.07,SE,135,5.0,11.0,84,0.00,,,0.00,WUHU216DAVISVP2,2013-03-25 07:42:00,
2013-03-25 02:47:00,22.7,18.3,30.07,SE,131,3.0,11.0,83,0.00,,,0.00,WUHU216DAVISVP2,2013-03-25 07:47:00,
2013-03-25 02:52:00,22.6,18.2,30.07,SE,135,4.0,11.0,83,0.00,,,0.00,WUHU216DAVISVP2,2013-03-25 07:52:00,
2013-03-25 02:57:00,22.6,18.2,30.07,SE,124,2.0,11.0,83,0.00,,,0.00,WUHU216DAVISVP2,2013-03-25 07:57:00,
2013-03-25 03:02:00,22.5,18.1,30.07,SE,126,4.0,11.0,83,0.00,,,0.00,WUHU216DAVISVP2,2013-03-25 08:02:00,
2013-03-25 03:07:00,22.5,18.1,30.08,SE,127,7.0,10.0,83,0.00,,,0.00,WUHU216DAVISVP2,2013-03-25 08:07:00,
2013-03-25 03:12:00,22.5,18.1,30.07,SE,130,7.0,11.0,83,0.00,,,0.00,WUHU216DAVISVP2,2013-03-25 08:12:00,
2013-03-25 03:17:00,22.6,18.2,30.07,ESE,123,9.0,14.0,83,0.00,,,0.00,WUHU216DAVISVP2,2013-03-25 08:17:00,
2013-03-25 03:22:00,22.6,18.2,30.07,SE,131,4.0,14.0,83,0.00,,,0.00,WUHU216DAVISVP2,2013-03-25 08:22:00,
2013-03-25 03:27:00,22.6,18.2,30.07,ESE,108,7.0,15.0,83,0.00,,,0.00,WUHU216DAVISVP2,2013-03-25 08:27:00,
2013-03-25 03:32:00,22.6,17.9,30.07,ESE,122,8.0,15.0,82,0.00,,,0.00,WUHU216DAVISVP2,2013-03-25 08:32:00,
2013-03-25 03:37:00,22.7,18.1,30.07,SE,127,10.0,17.0,82,0.00,,,0.00,WUHU216DAVISVP2,2013-03-25 08:37:00,
2013-03-25 03:42:00,22.7,18.0,30.07,ESE,116,6.0,17.0,82,0.00,,,0.00,WUHU216DAVISVP2,2013-03-25 08:42:00,
2013-03-25 03:47:00,22.7,18.0,30.07,SE,135,3.0,17.0,82,0.00,,,0.00,WUHU216DAVISVP2,2013-03-25 08:47:00,
2013-03-25 03:52:00,22.6,18.2,30.07,ESE,118,6.0,17.0,83,0.00,,,0.00,WUHU216DAVISVP2,2013-03-25 08:52:00,
2013-03-25 03:57:00,22.5,18.1,30.07,ESE,118,6.0,15.0,83,0.00,,,0.00,WUHU216DAVISVP2,2013-03-25 08:57:00,
2013-03-25 04:02:00,22.4,18.0,30.07,SE,134,8.0,15.0,83,0.00,,,0.00,WUHU216DAVISVP2,2013-03-25 09:02:00,
2013-03-25 04:07:00,22.4,18.0,30.08,SE,132,8.0,13.0,83,0.00,,,0.00,WUHU216DAVISVP2,2013-03-25 09:07:00,
2013-03-25 04:12:00,22.3,17.9,30.08,ESE,120,10.0,14.0,83,0.00,,,0.00,WUHU216DAVISVP2,2013-03-25 09:12:00,
2013-03-25 04:17:00,22.3,17.9,30.08,ESE,118,8.0,14.0,83,0.00,,,0.00,WUHU216DAVISVP2,2013-03-25 09:17:00,
2013-03-25 04:22:00,22.2,17.8,30.08,SE,125,10.0,15.0,83,0.00,,,0.00,WUHU216DAVISVP2,2013-03-25 09:22:00,
2013-03-25 04:27:00,22.3,17.9,30.08,ESE,108,9.0,15.0,83,0.00,,,0.00,WUHU216DAVISVP2,2013-03-25 09:27:00,
2013-03-25 04:32:00,22.3,17.6,30.08,ESE,105,14.0,15.0,82,0.00,,,0.00,WUHU216DAVISVP2,2013-03-25 09:32:00,
2013-03-25 04:37:00,22.2,17.6,30.08,ESE,112,7.0,15.0,82,0.00,,,0.00,WUHU216DAVISVP2,2013-03-25 09:37:00,
2013-03-25 04:42:00,22.2,17.5,30.09,ESE,120,9.0,14.0,82,0.00,,,0.00,WUHU216DAVISVP2,2013-03-25 09:42:00,
2013-03-25 04:47:00,22.2,17.5,30.09,ESE,119,10.0,14.0,82,0.00,,,0.00,WUHU216DAVISVP2,2013-03-25 09:47:00,
2013-03-25 04:52:00,22.2,17.5,30.09,ESE,104,11.0,16.0,82,0.00,,,0.00,WUHU216DAVISVP2,2013-03-25 09:52:00,
2013-03-25 04:57:00,22.2,17.6,30.08,ESE,115,8.0,17.0,82,0.00,,,0.00,WUHU216DAVISVP2,2013-03-25 09:57:00,
2013-03-25 05:02:00,22.3,17.6,30.08,SSE,150,7.0,17.0,82,0.00,,,0.00,WUHU216DAVISVP2,2013-03-25 10:02:00,
2013-03-25 05:07:00,22.2,17.5,30.08,ESE,108,9.0,17.0,82,0.00,,,0.00,WUHU216DAVISVP2,2013-03-25 10:07:00,
2013-03-25 05:12:00,22.2,17.6,30.09,SE,137,7.0,13.0,82,0.00,,,0.00,WUHU216DAVISVP2,2013-03-25 10:12:00,
2013-03-25 05:17:00,22.2,17.5,30.09,ESE,110,8.0,14.0,82,0.00,,,0.00,WUHU216DAVISVP2,2013-03-25 10:17:00,
2013-03-25 05:22:00,22.3,17.6,30.09,ESE,123,11.0,16.0,82,0.00,,,0.00,WUHU216DAVISVP2,2013-03-25 10:22:00,
2013-03-25 05:27:00,22.4,17.7,30.10,ESE,114,8.0,21.0,82,0.00,,,0.00,WUHU216DAVISVP2,2013-03-25 10:27:00,
2013-03-25 05:32:00,22.5,17.5,30.10,SE,125,10.0,21.0,81,0.00,,,0.00,WUHU216DAVISVP2,2013-03-25 10:32:00,
2013-03-25 05:37:00,22.4,17.7,30.10,ESE,102,9.0,21.0,82,0.00,,,0.00,WUHU216DAVISVP2,2013-03-25 10:37:00,
2013-03-25 05:42:00,22.4,17.7,30.10,East,95,5.0,21.0,82,0.00,,,0.00,WUHU216DAVISVP2,2013-03-25 10:42:00,
2013-03-25 05:47:00,22.5,17.8,30.10,ESE,108,11.0,17.0,82,0.00,,,0.00,WUHU216DAVISVP2,2013-03-25 10:47:00,
2013-03-25 05:52:00,22.5,17.8,30.10,ESE,108,11.0,23.0,82,0.00,,,0.00,WUHU216DAVISVP2,2013-03-25 10:52:00,
2013-03-25 05:57:00,22.5,17.8,30.09,SE,134,15.0,23.0,82,0.00,,,0.00,WUHU216DAVISVP2,2013-03-25 10:57:00,
2013-03-25 06:02:00,22.5,17.8,30.10,SE,128,10.0,23.0,82,0.00,,,0.00,WUHU216DAVISVP2,2013-03-25 11:02:00,
2013-03-25 06:07:00,22.5,17.8,30.10,ESE,123,9.0,23.0,82,0.00,,,0.00,WUHU216DAVISVP2,2013-03-25 11:07:00,
2013-03-25 06:12:00,22.4,17.7,30.10,ESE,112,9.0,19.0,82,0.00,,,0.00,WUHU216DAVISVP2,2013-03-25 11:12:00,
2013-03-25 06:18:00,22.4,17.7,30.10,SE,136,11.0,18.0,82,0.00,,,0.00,WUHU216DAVISVP2,2013-03-25 11:18:00,
2013-03-25 06:23:00,22.3,17.6,30.10,SE,131,10.0,18.0,82,0.00,,,0.00,WUHU216DAVISVP2,2013-03-25 11:23:00,
2013-03-25 06:28:00,22.3,17.9,30.10,ESE,121,14.0,17.0,83,0.00,,,0.00,WUHU216DAVISVP2,2013-03-25 11:28:00,
2013-03-25 06:33:00,22.4,18.0,30.10,ESE,118,8.0,16.0,83,0.00,,,0.00,WUHU216DAVISVP2,2013-03-25 11:33:00,
2013-03-25 06:38:00,22.4,18.0,30.11,SE,134,17.0,17.0,83,0.00,,,0.00,WUHU216DAVISVP2,2013-03-25 11:38:00,
2013-03-25 06:43:00,22.4,18.0,30.11,SE,139,9.0,17.0,83,0.00,,,0.00,WUHU216DAVISVP2,2013-03-25 11:43:00,
2013-03-25 06:48:00,22.5,18.3,30.11,ESE,123,10.0,17.0,84,0.00,,,0.00,WUHU216DAVISVP2,2013-03-25 11:48:00,
2013-03-25 06:53:00,22.5,18.4,30.11,SE,125,9.0,17.0,84,0.00,,,0.00,WUHU216DAVISVP2,2013-03-25 11:53:00,
2013-03-25 06:58:00,22.5,18.4,30.11,SE,129,9.0,15.0,84,0.00,,,0.00,WUHU216DAVISVP2,2013-03-25 11:58:00,
2013-03-25 07:03:00,22.6,18.5,30.11,SE,133,9.0,16.0,84,0.00,,,0.00,WUHU216DAVISVP2,2013-03-25 12:03:00,
2013-03-25 07:08:00,22.6,18.5,30.11,SE,144,6.0,16.0,84,0.00,,,0.00,WUHU216DAVISVP2,2013-03-25 12:08:00,
2013-03-25 07:13:00,22.7,18.8,30.11,ESE,119,8.0,16.0,85,0.00,,,0.00,WUHU216DAVISVP2,2013-03-25 12:13:00,
2013-03-25 07:18:00,22.7,20.7,30.11,ESE,121,11.0,19.0,92,0.00,,,0.00,WUHU216DAVISVP2,2013-03-25 12:18:00,
2013-03-25 07:23:00,22.7,18.9,30.11,ESE,109,8.0,19.0,85,0.00,,,0.00,WUHU216DAVISVP2,2013-03-25 12:23:00,
2013-03-25 07:28:00,22.8,18.9,30.12,SE,130,8.0,19.0,85,0.00,,,0.00,WUHU216DAVISVP2,2013-03-25 12:28:00,
2013-03-25 07:33:00,22.8,18.9,30.12,ESE,118,6.0,19.0,85,0.00,,,0.00,WUHU216DAVISVP2,2013-03-25 12:33:00,
2013-03-25 07:38:00,22.9,19.1,30.12,SE,132,13.0,16.0,85,0.00,,,0.00,WUHU216DAVISVP2,2013-03-25 12:38:00,
2013-03-25 07:44:00,23.0,19.1,30.12,SE,146,7.0,15.0,85,0.00,,,0.00,WUHU216DAVISVP2,2013-03-25 12:44:00,
2013-03-25 07:49:00,23.2,19.4,30.12,SE,134,11.0,15.0,85,0.00,,,0.00,WUHU216DAVISVP2,2013-03-25 12:49:00,
2013-03-25 07:54:00,23.4,19.5,30.12,SE,141,12.0,16.0,85,0.00,,,0.00,WUHU216DAVISVP2,2013-03-25 12:54:00,
2013-03-25 07:59:00,23.4,19.5,30.12,SE,131,14.0,16.0,85,0.00,,,0.00,WUHU216DAVISVP2,2013-03-25 12:59:00,
2013-03-25 08:04:00,23.4,19.5,30.13,SE,135,5.0,17.0,85,0.00,,,0.00,WUHU216DAVISVP2,2013-03-25 13:04:00,
2013-03-25 08:09:00,23.3,19.4,30.13,SSE,155,14.0,17.0,85,0.00,,,0.00,WUHU216DAVISVP2,2013-03-25 13:09:00,
2013-03-25 08:14:00,23.1,19.6,30.13,ESE,121,13.0,18.0,86,0.00,,,0.00,WUHU216DAVISVP2,2013-03-25 13:14:00,
2013-03-25 08:19:00,23.1,19.5,30.14,ESE,119,8.0,18.0,86,0.00,,,0.00,WUHU216DAVISVP2,2013-03-25 13:19:00,
2013-03-25 08:24:00,23.0,19.4,30.14,SE,131,9.0,18.0,86,0.00,,,0.00,WUHU216DAVISVP2,2013-03-25 13:24:00,
2013-03-25 08:29:00,23.0,19.1,30.14,ESE,113,8.0,18.0,85,0.00,,,0.00,WUHU216DAVISVP2,2013-03-25 13:29:00,
2013-03-25 08:34:00,22.8,19.2,30.14,SE,133,13.0,18.0,86,0.00,,,0.00,WUHU216DAVISVP2,2013-03-25 13:34:00,
2013-03-25 08:39:00,22.8,19.2,30.14,SE,135,9.0,18.0,86,0.00,,,0.00,WUHU216DAVISVP2,2013-03-25 13:39:00,
2013-03-25 08:44:00,22.7,19.1,30.15,ESE,119,7.0,18.0,86,0.00,,,0.00,WUHU216DAVISVP2,2013-03-25 13:44:00,
2013-03-25 08:49:00,22.7,19.1,30.15,ESE,118,9.0,18.0,86,0.00,,,0.00,WUHU216DAVISVP2,2013-03-25 13:49:00,
2013-03-25 08:54:00,22.6,19.0,30.15,SE,140,7.0,19.0,86,0.00,,,0.00,WUHU216DAVISVP2,2013-03-25 13:54:00,
2013-03-25 08:59:00,22.6,19.0,30.15,ESE,120,6.0,19.0,86,0.00,,,0.00,WUHU216DAVISVP2,2013-03-25 13:59:00,
2013-03-25 09:04:00,22.5,18.9,30.15,SE,139,8.0,18.0,86,0.00,,,0.00,WUHU216DAVISVP2,2013-03-25 14:04:00,
2013-03-25 09:09:00,22.5,18.9,30.15,SE,140,16.0,17.0,86,0.00,,,0.00,WUHU216DAVISVP2,2013-03-25 14:09:00,
2013-03-25 09:14:00,22.3,18.7,30.16,ESE,120,15.0,18.0,86,0.00,,,0.00,WUHU216DAVISVP2,2013-03-25 14:14:00,
2013-03-25 09:19:00,22.1,18.5,30.16,ESE,109,10.0,21.0,86,0.00,,,0.00,WUHU216DAVISVP2,2013-03-25 14:19:00,
2013-03-25 09:24:00,22.1,18.5,30.16,SE,146,12.0,21.0,86,0.00,,,0.00,WUHU216DAVISVP2,2013-03-25 14:24:00,
2013-03-25 09:30:00,22.1,18.8,30.16,SSE,154,6.0,21.0,87,0.00,,,0.00,WUHU216DAVISVP2,2013-03-25 14:30:00,
2013-03-25 09:35:00,21.8,18.3,30.16,ESE,122,13.0,18.0,86,0.00,,,0.00,WUHU216DAVISVP2,2013-03-25 14:35:00,
2013-03-25 09:40:00,21.8,18.5,30.17,SE,128,9.0,18.0,87,0.00,,,0.00,WUHU216DAVISVP2,2013-03-25 14:40:00,
2013-03-25 09:45:00,21.9,18.6,30.17,ESE,123,4.0,18.0,87,0.00,,,0.00,WUHU216DAVISVP2,2013-03-25 14:45:00,
2013-03-25 09:50:00,21.7,18.2,30.17,ESE,112,16.0,19.0,86,0.00,,,0.00,WUHU216DAVISVP2,2013-03-25 14:50:00,
2013-03-25 09:55:00,21.7,18.4,30.17,ESE,121,7.0,19.0,87,0.00,,,0.00,WUHU216DAVISVP2,2013-03-25 14:55:00,
2013-03-25 10:00:00,21.6,18.0,30.17,ESE,104,11.0,21.0,86,0.00,,,0.00,WUHU216DAVISVP2,2013-03-25 15:00:00,
2013-03-25 10:05:00,21.5,18.2,30.18,ESE,118,11.0,21.0,87,0.00,,,0.00,WUHU216DAVISVP2,2013-03-25 15:05:00,
2013-03-25 10:10:00,21.5,18.2,30.18,ESE,116,14.0,21.0,87,0.00,,,0.00,WUHU216DAVISVP2,2013-03-25 15:10:00,
2013-03-25 10:15:00,21.4,17.8,30.18,SE,127,13.0,21.0,86,0.00,,,0.00,WUHU216DAVISVP2,2013-03-25 15:15:00,
2013-03-25 10:20:00,21.5,18.2,30.18,ESE,116,8.0,19.0,87,0.00,,,0.00,WUHU216DAVISVP2,2013-03-25 15:20:00,
2013-03-25 10:25:00,21.4,17.8,30.19,ESE,115,6.0,19.0,86,0.00,,,0.00,WUHU216DAVISVP2,2013-03-25 15:25:00,
2013-03-25 10:30:00,21.3,17.7,30.19,ESE,116,11.0,19.0,86,0.00,,,0.00,WUHU216DAVISVP2,2013-03-25 15:30:00,
2013-03-25 10:35:00,21.2,17.7,30.19,ESE,118,7.0,19.0,86,0.00,,,0.00,WUHU216DAVISVP2,2013-03-25 15:35:00,
2013-03-25 10:40:00,21.2,17.7,30.19,ESE,119,13.0,19.0,86,0.00,,,0.00,WUHU216DAVISVP2,2013-03-25 15:40:00,
2013-03-25 10:45:00,21.2,17.7,30.19,SE,127,7.0,21.0,86,0.00,,,0.00,WUHU216DAVISVP2,2013-03-25 15:45:00,
2013-03-25 10:50:00,21.2,17.7,30.19,ESE,107,6.0,21.0,86,0.00,,,0.00,WUHU216DAVISVP2,2013-03-25 15:50:00,
2013-03-25 10:55:00,21.2,17.7,30.19,SE,135,5.0,21.0,86,0.00,,,0.00,WUHU216DAVISVP2,2013-03-25 15:55:00,
2013-03-25 11:00:00,21.3,17.8,30.20,SE,138,5.0,19.0,86,0.00,,,0.00,WUHU216DAVISVP2,2013-03-25 16:00:00,
2013-03-25 11:05:00,21.5,17.9,30.20,ESE,104,7.0,19.0,86,0.00,,,0.00,WUHU216DAVISVP2,2013-03-25 16:05:00,
2013-03-25 11:10:00,21.5,17.6,30.20,ESE,120,7.0,22.0,85,0.00,,,0.00,WUHU216DAVISVP2,2013-03-25 16:10:00,
2013-03-25 11:15:00,21.5,17.6,30.20,ESE,116,5.0,22.0,85,0.00,,,0.00,WUHU216DAVISVP2,2013-03-25 16:15:00,
2013-03-25 11:20:00,21.6,17.8,30.20,SE,131,7.0,22.0,85,0.00,,,0.00,WUHU216DAVISVP2,2013-03-25 16:20:00,
2013-03-25 11:25:00,21.7,17.9,30.21,SE,136,12.0,22.0,85,0.00,,,0.00,WUHU216DAVISVP2,2013-03-25 16:25:00,
2013-03-25 11:30:00,21.8,17.9,30.21,ESE,108,7.0,18.0,85,0.00,,,0.00,WUHU216DAVISVP2,2013-03-25 16:30:00,
2013-03-25 11:35:00,21.9,18.0,30.21,ESE,116,16.0,19.0,85,0.00,,,0.00,WUHU216DAVISVP2,2013-03-25 16:35:00,
2013-03-25 11:40:00,21.9,18.1,30.21,SE,137,14.0,21.0,85,0.00,,,0.00,WUHU216DAVISVP2,2013-03-25 16:40:00,
2013-03-25 11:45:00,22.0,18.1,30.21,SE,125,10.0,21.0,85,0.00,,,0.00,WUHU216DAVISVP2,2013-03-25 16:45:00,
2013-03-25 11:50:00,22.0,18.1,30.22,ESE,112,9.0,21.0,85,0.00,,,0.00,WUHU216DAVISVP2,2013-03-25 16:50:00,
2013-03-25 11:55:00,22.0,18.2,30.22,SE,131,5.0,21.0,85,0.00,,,0.00,WUHU216DAVISVP2,2013-03-25 16:55:00,
2013-03-25 12:00:00,22.2,18.1,30.22,SE,137,4.0,21.0,84,0.00,,,0.00,WUHU216DAVISVP2,2013-03-25 17:00:00,
2013-03-25 12:05:00,22.4,18.3,30.22,SE,139,11.0,21.0,84,0.00,,,0.00,WUHU216DAVISVP2,2013-03-25 17:05:00,
2013-03-25 12:10:00,22.4,18.0,30.22,ESE,110,17.0,21.0,83,0.00,,,0.00,WUHU216DAVISVP2,2013-03-25 17:10:00,
2013-03-25 12:15:00,22.6,18.2,30.22,ESE,118,15.0,19.0,83,0.00,,,0.00,WUHU216DAVISVP2,2013-03-25 17:15:00,
2013-03-25 12:20:00,22.7,18.3,30.22,East,99,13.0,19.0,83,0.00,,,0.00,WUHU216DAVISVP2,2013-03-25 17:20:00,
2013-03-25 12:25:00,23.0,18.6,30.22,ESE,122,12.0,24.0,83,0.00,,,0.00,WUHU216DAVISVP2,2013-03-25 17:25:00,
2013-03-25 12:30:00,23.0,18.3,30.22,ESE,118,15.0,24.0,82,0.00,,,0.00,WUHU216DAVISVP2,2013-03-25 17:30:00,
2013-03-25 12:35:00,22.9,18.2,30.22,ESE,116,6.0,24.0,82,0.00,,,0.00,WUHU216DAVISVP2,2013-03-25 17:35:00,
2013-03-25 12:40:00,22.9,18.2,30.23,SE,125,12.0,24.0,82,0.00,,,0.00,WUHU216DAVISVP2,2013-03-25 17:40:00,
2013-03-25 12:45:00,23.1,18.4,30.23,SE,136,17.0,21.0,82,0.00,,,0.00,WUHU216DAVISVP2,2013-03-25 17:45:00,
2013-03-25 12:50:00,23.1,18.4,30.23,SE,130,12.0,21.0,82,0.00,,,0.00,WUHU216DAVISVP2,2013-03-25 17:50:00,
2013-03-25 12:55:00,23.1,18.1,30.23,SE,127,14.0,21.0,81,0.00,,,0.00,WUHU216DAVISVP2,2013-03-25 17:55:00,
2013-03-25 13:00:00,23.2,18.5,30.23,SE,128,5.0,21.0,82,0.00,,,0.00,WUHU216DAVISVP2,2013-03-25 18:00:00,
2013-03-25 13:05:00,23.5,18.8,30.23,SE,146,8.0,21.0,82,0.00,,,0.00,WUHU216DAVISVP2,2013-03-25 18:05:00,
2013-03-25 13:10:00,23.7,18.7,30.23,SE,138,14.0,19.0,81,0.00,,,0.00,WUHU216DAVISVP2,2013-03-25 18:10:00,
2013-03-25 13:15:00,23.8,18.6,30.22,SE,137,9.0,19.0,80,0.00,,,0.00,WUHU216DAVISVP2,2013-03-25 18:15:00,
2013-03-25 13:20:00,23.8,18.6,30.22,SE,133,14.0,19.0,80,0.00,,,0.00,WUHU216DAVISVP2,2013-03-25 18:20:00,
2013-03-25 13:25:00,24.1,18.8,30.22,SE,131,10.0,21.0,80,0.00,,,0.00,WUHU216DAVISVP2,2013-03-25 18:25:00,
2013-03-25 13:30:00,24.3,19.0,30.22,SE,141,5.0,21.0,80,0.00,,,0.00,WUHU216DAVISVP2,2013-03-25 18:30:00,
2013-03-25 13:35:00,24.8,19.2,30.22,East,94,4.0,21.0,79,0.00,,,0.00,WUHU216DAVISVP2,2013-03-25 18:35:00,
2013-03-25 13:40:00,25.1,19.3,30.22,ESE,122,9.0,21.0,78,0.00,,,0.00,WUHU216DAVISVP2,2013-03-25 18:40:00,
2013-03-25 13:45:00,25.3,19.4,30.22,ESE,112,11.0,21.0,78,0.00,,,0.00,WUHU216DAVISVP2,2013-03-25 18:45:00,
2013-03-25 13:50:00,25.2,19.3,30.22,East,94,8.0,21.0,78,0.00,,,0.00,WUHU216DAVISVP2,2013-03-25 18:50:00,
2013-03-25 13:55:00,25.5,19.6,30.22,ESE,122,12.0,19.0,78,0.00,,,0.00,WUHU216DAVISVP2,2013-03-25 18:55:00,
2013-03-25 14:00:00,25.8,19.9,30.22,ESE,105,2.0,19.0,78,0.00,,,0.00,WUHU216DAVISVP2,2013-03-25 19:00:00,
2013-03-25 14:05:00,26.2,20.0,30.22,ESE,114,15.0,19.0,77,0.00,,,0.00,WUHU216DAVISVP2,2013-03-25 19:05:00,
2013-03-25 14:10:00,26.3,19.8,30.22,SE,133,8.0,21.0,76,0.00,,,0.00,WUHU216DAVISVP2,2013-03-25 19:10:00,
2013-03-25 14:15:00,26.7,20.1,30.22,ESE,107,6.0,21.0,76,0.00,,,0.00,WUHU216DAVISVP2,2013-03-25 19:15:00,
2013-03-25 14:20:00,27.1,20.6,30.22,ESE,117,19.0,21.0,76,0.00,,,0.00,WUHU216DAVISVP2,2013-03-25 19:20:00,
2013-03-25 14:25:00,26.7,19.9,30.22,East,90,10.0,21.0,75,0.00,,,0.00,WUHU216DAVISVP2,2013-03-25 19:25:00,
2013-03-25 14:30:00,26.7,20.1,30.22,SSE,158,9.0,21.0,76,0.00,,,0.00,WUHU216DAVISVP2,2013-03-25 19:30:00,
2013-03-25 14:35:00,26.6,19.8,30.22,SE,146,14.0,21.0,75,0.00,,,0.00,WUHU216DAVISVP2,2013-03-25 19:35:00,
2013-03-25 14:40:00,26.7,20.2,30.22,SSE,150,19.0,21.0,76,0.00,,,0.00,WUHU216DAVISVP2,2013-03-25 19:40:00,
2013-03-25 14:45:00,26.6,20.4,30.22,ESE,117,8.0,23.0,77,0.00,,,0.00,WUHU216DAVISVP2,2013-03-25 19:45:00,
2013-03-25 14:50:00,26.7,20.2,30.22,ESE,114,8.0,23.0,76,0.00,,,0.00,WUHU216DAVISVP2,2013-03-25 19:50:00,
2013-03-25 14:55:00,26.9,20.6,30.23,ESE,104,9.0,23.0,77,0.00,,,0.00,WUHU216DAVISVP2,2013-03-25 19:55:00,
2013-03-25 15:00:00,27.2,20.6,30.22,SE,127,9.0,23.0,76,0.00,,,0.00,WUHU216DAVISVP2,2013-03-25 20:00:00,
2013-03-25 15:05:00,26.9,20.4,30.23,SE,141,13.0,23.0,76,0.00,,,0.00,WUHU216DAVISVP2,2013-03-25 20:05:00,
2013-03-25 15:10:00,26.9,20.4,30.23,ESE,116,7.0,26.0,76,0.00,,,0.00,WUHU216DAVISVP2,2013-03-25 20:10:00,
2013-03-25 15:15:00,27.2,21.0,30.23,ESE,110,11.0,26.0,77,0.00,,,0.00,WUHU216DAVISVP2,2013-03-25 20:15:00,
2013-03-25 15:20:00,27.5,20.9,30.23,ESE,108,14.0,26.0,76,0.00,,,0.00,WUHU216DAVISVP2,2013-03-25 20:20:00,
2013-03-25 15:25:00,27.6,21.3,30.23,ESE,104,16.0,26.0,77,0.00,,,0.00,WUHU216DAVISVP2,2013-03-25 20:25:00,
2013-03-25 15:30:00,27.7,20.8,30.23,SE,134,8.0,24.0,75,0.00,,,0.00,WUHU216DAVISVP2,2013-03-25 20:30:00,
2013-03-25 15:35:00,27.6,20.7,30.23,SE,131,18.0,25.0,75,0.00,,,0.00,WUHU216DAVISVP2,2013-03-25 20:35:00,
2013-03-25 15:40:00,27.7,21.1,30.23,ESE,122,20.0,25.0,76,0.00,,,0.00,WUHU216DAVISVP2,2013-03-25 20:40:00,
2013-03-25 15:45:00,27.7,21.2,30.24,SE,138,13.0,25.0,76,0.00,,,0.00,WUHU216DAVISVP2,2013-03-25 20:45:00,
2013-03-25 15:50:00,27.7,21.2,30.24,ESE,120,7.0,25.0,76,0.00,,,0.00,WUHU216DAVISVP2,2013-03-25 20:50:00,
2013-03-25 15:55:00,27.9,21.0,30.24,SE,127,14.0,22.0,75,0.00,,,0.00,WUHU216DAVISVP2,2013-03-25 20:55:00,
2013-03-25 16:00:00,28.1,21.5,30.24,SE,124,7.0,23.0,76,0.00,,,0.00,WUHU216DAVISVP2,2013-03-25 21:00:00,
2013-03-25 16:05:00,28.1,20.9,30.24,ESE,123,13.0,26.0,74,0.00,,,0.00,WUHU216DAVISVP2,2013-03-25 21:05:00,
2013-03-25 16:10:00,28.5,21.4,30.24,SE,138,15.0,26.0,74,0.00,,,0.00,WUHU216DAVISVP2,2013-03-25 21:10:00,
2013-03-25 16:15:00,28.8,21.6,30.24,ESE,117,7.0,26.0,74,0.00,,,0.00,WUHU216DAVISVP2,2013-03-25 21:15:00,
2013-03-25 16:20:00,28.6,22.0,30.24,ESE,116,15.0,26.0,76,0.00,,,0.00,WUHU216DAVISVP2,2013-03-25 21:20:00,
2013-03-25 16:25:00,28.8,22.5,30.24,SE,137,16.0,23.0,77,0.00,,,0.00,WUHU216DAVISVP2,2013-03-25 21:25:00,
2013-03-25 16:30:00,28.8,22.2,30.24,ESE,116,7.0,21.0,76,0.00,,,0.00,WUHU216DAVISVP2,2013-03-25 21:30:00,
2013-03-25 16:35:00,28.9,22.3,30.25,SSE,148,14.0,21.0,76,0.00,,,0.00,WUHU216DAVISVP2,2013-03-25 21:35:00,
2013-03-25 16:40:00,29.2,22.3,30.24,ESE,108,14.0,20.0,75,0.00,,,0.00,WUHU216DAVISVP2,2013-03-25 21:40:00,
2013-03-25 16:45:00,29.3,22.1,30.25,SE,139,14.0,20.0,74,0.00,,,0.00,WUHU216DAVISVP2,2013-03-25 21:45:00,
2013-03-25 16:50:00,29.4,22.8,30.25,East,87,13.0,19.0,76,0.00,,,0.00,WUHU216DAVISVP2,2013-03-25 21:50:00,
2013-03-25 16:55:00,29.4,23.1,30.25,ESE,118,9.0,23.0,77,0.00,,,0.00,WUHU216DAVISVP2,2013-03-25 21:55:00,
2013-03-25 17:00:00,29.5,23.2,30.25,SSE,148,14.0,23.0,77,0.00,,,0.00,WUHU216DAVISVP2,2013-03-25 22:00:00,
2013-03-25 17:05:00,29.4,23.1,30.25,ESE,113,15.0,23.0,77,0.00,,,0.00,WUHU216DAVISVP2,2013-03-25 22:05:00,
2013-03-25 17:10:00,29.6,23.0,30.25,ESE,117,8.0,23.0,76,0.00,,,0.00,WUHU216DAVISVP2,2013-03-25 22:10:00,
2013-03-25 17:15:00,29.9,23.0,30.25,SE,124,9.0,23.0,75,0.00,,,0.00,WUHU216DAVISVP2,2013-03-25 22:15:00,
2013-03-25 17:20:00,30.0,23.0,30.25,East,96,13.0,23.0,75,0.00,,,0.00,WUHU216DAVISVP2,2013-03-25 22:20:00,
2013-03-25 17:25:00,30.0,23.1,30.25,ESE,118,19.0,26.0,75,0.00,,,0.00,WUHU216DAVISVP2,2013-03-25 22:25:00,
2013-03-25 17:30:00,30.1,22.5,30.25,SSE,153,18.0,26.0,73,0.00,,,0.00,WUHU216DAVISVP2,2013-03-25 22:30:00,
2013-03-25 17:35:00,30.2,23.0,30.25,SE,130,8.0,26.0,74,0.00,,,0.00,WUHU216DAVISVP2,2013-03-25 22:35:00,
2013-03-25 17:40:00,30.3,22.4,30.25,ESE,121,26.0,26.0,72,0.00,,,0.00,WUHU216DAVISVP2,2013-03-25 22:40:00,
2013-03-25 17:45:00,30.3,22.5,30.25,ESE,104,9.0,26.0,72,0.00,,,0.00,WUHU216DAVISVP2,2013-03-25 22:45:00,
2013-03-25 17:50:00,30.6,22.7,30.26,SE,135,15.0,26.0,72,0.00,,,0.00,WUHU216DAVISVP2,2013-03-25 22:50:00,
2013-03-25 17:55:00,30.7,22.8,30.26,ESE,123,5.0,26.0,72,0.00,,,0.00,WUHU216DAVISVP2,2013-03-25 22:55:00,
2013-03-25 18:00:00,30.8,22.6,30.26,SE,132,9.0,24.0,71,0.00,,,0.00,WUHU216DAVISVP2,2013-03-25 23:00:00,
2013-03-25 18:05:00,30.8,22.5,30.26,SE,127,9.0,24.0,71,0.00,,,0.00,WUHU216DAVISVP2,2013-03-25 23:05:00,
2013-03-25 18:10:00,30.7,22.8,30.27,ESE,110,9.0,19.0,72,0.00,,,0.00,WUHU216DAVISVP2,2013-03-25 23:10:00,
2013-03-25 18:15:00,30.6,22.7,30.27,ESE,107,9.0,25.0,72,0.00,,,0.00,WUHU216DAVISVP2,2013-03-25 23:15:00,
2013-03-25 18:20:00,30.4,22.9,30.27,ESE,106,6.0,25.0,73,0.00,,,0.00,WUHU216DAVISVP2,2013-03-25 23:20:00,
2013-03-25 18:25:00,30.3,22.7,30.27,SE,124,18.0,25.0,73,0.00,,,0.00,WUHU216DAVISVP2,2013-03-25 23:25:00,
2013-03-25 18:30:00,30.3,22.7,30.27,ESE,116,16.0,25.0,73,0.00,,,0.00,WUHU216DAVISVP2,2013-03-25 23:30:00,
2013-03-25 18:35:00,30.2,22.7,30.27,ESE,121,6.0,23.0,73,0.00,,,0.00,WUHU216DAVISVP2,2013-03-25 23:35:00,
2013-03-25 18:40:00,30.2,22.6,30.27,ESE,114,14.0,23.0,73,0.00,,,0.00,WUHU216DAVISVP2,2013-03-25 23:40:00,
2013-03-25 18:45:00,30.2,22.6,30.27,East,83,10.0,21.0,73,0.00,,,0.00,WUHU216DAVISVP2,2013-03-25 23:45:00,
2013-03-25 18:50:00,30.1,22.6,30.27,SE,129,12.0,18.0,73,0.00,,,0.00,WUHU216DAVISVP2,2013-03-25 23:50:00,
2013-03-25 18:55:00,30.1,22.5,30.28,East,98,7.0,16.0,73,0.00,,,0.00,WUHU216DAVISVP2,2013-03-25 23:55:00,
2013-03-25 19:00:00,30.1,22.2,30.28,ESE,116,7.0,18.0,72,0.00,,,0.00,WUHU216DAVISVP2,2013-03-26 00:00:00,
2013-03-25 19:05:00,30.0,22.1,30.28,SE,135,9.0,19.0,72,0.00,,,0.00,WUHU216DAVISVP2,2013-03-26 00:05:00,
2013-03-25 19:10:00,29.9,22.3,30.28,SE,126,9.0,19.0,73,0.00,,,0.00,WUHU216DAVISVP2,2013-03-26 00:10:00,
2013-03-25 19:15:00,29.7,22.2,30.28,ESE,121,9.0,19.0,73,0.00,,,0.00,WUHU216DAVISVP2,2013-03-26 00:15:00,
2013-03-25 19:20:00,29.7,22.2,30.28,SE,134,12.0,19.0,73,0.00,,,0.00,WUHU216DAVISVP2,2013-03-26 00:20:00,
2013-03-25 19:25:00,29.7,22.4,30.28,SE,127,11.0,17.0,74,0.00,,,0.00,WUHU216DAVISVP2,2013-03-26 00:25:00,
2013-03-25 19:30:00,29.5,22.3,30.28,ESE,114,11.0,19.0,74,0.00,,,0.00,WUHU216DAVISVP2,2013-03-26 00:30:00,
2013-03-25 19:35:00,29.5,22.6,30.28,SE,135,9.0,19.0,75,0.00,,,0.00,WUHU216DAVISVP2,2013-03-26 00:35:00,
2013-03-25 19:40:00,29.4,22.5,30.29,SE,127,9.0,19.0,75,0.00,,,0.00,WUHU216DAVISVP2,2013-03-26 00:40:00,
2013-03-25 19:45:00,29.3,22.4,30.29,SE,131,8.0,19.0,75,0.00,,,0.00,WUHU216DAVISVP2,2013-03-26 00:45:00,
2013-03-25 19:50:00,29.3,22.7,30.29,SE,124,12.0,17.0,76,0.00,,,0.00,WUHU216DAVISVP2,2013-03-26 00:50:00,
2013-03-25 19:55:00,29.2,22.6,30.29,ESE,122,8.0,14.0,76,0.00,,,0.00,WUHU216DAVISVP2,2013-03-26 00:55:00,
2013-03-25 20:00:00,29.0,22.4,30.29,SE,126,11.0,15.0,76,0.00,,,0.00,WUHU216DAVISVP2,2013-03-26 01:00:00,
2013-03-25 20:05:00,29.0,22.4,30.29,SE,125,8.0,16.0,76,0.00,,,0.00,WUHU216DAVISVP2,2013-03-26 01:05:00,
2013-03-25 20:10:00,28.9,22.3,30.29,ESE,123,2.0,16.0,76,0.00,,,0.00,WUHU216DAVISVP2,2013-03-26 01:10:00,
2013-03-25 20:15:00,28.8,22.2,30.29,SE,132,7.0,16.0,76,0.00,,,0.00,WUHU216DAVISVP2,2013-03-26 01:15:00,
2013-03-25 20:20:00,28.8,22.5,30.29,ESE,107,11.0,16.0,77,0.00,,,0.00,WUHU216DAVISVP2,2013-03-26 01:20:00,
2013-03-25 20:25:00,28.9,22.6,30.30,ESE,110,8.0,14.0,77,0.00,,,0.00,WUHU216DAVISVP2,2013-03-26 01:25:00,
2013-03-25 20:30:00,28.8,22.6,30.30,SE,124,5.0,14.0,77,0.00,,,0.00,WUHU216DAVISVP2,2013-03-26 01:30:00,
2013-03-25 20:35:00,28.8,22.5,30.29,SE,125,7.0,19.0,77,0.00,,,0.00,WUHU216DAVISVP2,2013-03-26 01:35:00,
2013-03-25 20:40:00,28.8,22.5,30.30,SE,133,10.0,19.0,77,0.00,,,0.00,WUHU216DAVISVP2,2013-03-26 01:40:00,
2013-03-25 20:45:00,28.7,22.5,30.30,SE,126,8.0,19.0,77,0.00,,,0.00,WUHU216DAVISVP2,2013-03-26 01:45:00,
2013-03-25 20:50:00,28.7,22.4,30.30,ESE,122,7.0,19.0,77,0.00,,,0.00,WUHU216DAVISVP2,2013-03-26 01:50:00,
2013-03-25 20:55:00,28.6,22.3,30.30,SE,127,10.0,15.0,77,0.00,,,0.00,WUHU216DAVISVP2,2013-03-26 01:55:00,
2013-03-25 21:00:00,28.5,22.6,30.30,SE,143,9.0,15.0,78,0.00,,,0.00,WUHU216DAVISVP2,2013-03-26 02:00:00,
2013-03-25 21:05:00,28.5,22.6,30.30,SE,143,5.0,14.0,78,0.00,,,0.00,WUHU216DAVISVP2,2013-03-26 02:05:00,
2013-03-25 21:10:00,28.5,22.5,30.31,SE,142,7.0,14.0,78,0.00,,,0.00,WUHU216DAVISVP2,2013-03-26 02:10:00,
2013-03-25 21:15:00,28.4,22.4,30.31,SE,129,7.0,14.0,78,0.00,,,0.00,WUHU216DAVISVP2,2013-03-26 02:15:00,
2013-03-25 21:20:00,28.3,22.7,30.31,ESE,117,9.0,14.0,79,0.00,,,0.00,WUHU216DAVISVP2,2013-03-26 02:20:00,
2013-03-25 21:25:00,28.2,22.5,30.31,SE,128,5.0,13.0,79,0.00,,,0.00,WUHU216DAVISVP2,2013-03-26 02:25:00,
2013-03-25 21:30:00,28.2,22.5,30.31,ESE,123,7.0,13.0,79,0.00,,,0.00,WUHU216DAVISVP2,2013-03-26 02:30:00,
2013-03-25 21:35:00,28.2,22.5,30.31,ESE,115,8.0,11.0,79,0.00,,,0.00,WUHU216DAVISVP2,2013-03-26 02:35:00,
2013-03-25 21:40:00,28.1,22.2,30.31,ESE,117,6.0,14.0,78,0.00,,,0.00,WUHU216DAVISVP2,2013-03-26 02:40:00,
2013-03-25 21:45:00,28.1,22.4,30.31,SE,135,10.0,14.0,79,0.00,,,0.00,WUHU216DAVISVP2,2013-03-26 02:45:00,
2013-03-25 21:50:00,28.1,22.4,30.31,ESE,122,5.0,15.0,79,0.00,,,0.00,WUHU216DAVISVP2,2013-03-26 02:50:00,
2013-03-25 21:55:00,28.1,22.4,30.31,ESE,121,7.0,15.0,79,0.00,,,0.00,WUHU216DAVISVP2,2013-03-26 02:55:00,
2013-03-25 22:00:00,27.9,22.3,30.32,SE,131,3.0,15.0,79,0.00,,,0.00,WUHU216DAVISVP2,2013-03-26 03:00:00,
2013-03-25 22:05:00,27.9,22.5,30.32,SE,125,9.0,15.0,80,0.00,,,0.00,WUHU216DAVISVP2,2013-03-26 03:05:00,
2013-03-25 22:10:00,28.0,22.6,30.32,SE,138,5.0,12.0,80,0.00,,,0.00,WUHU216DAVISVP2,2013-03-26 03:10:00,
2013-03-25 22:15:00,28.0,22.6,30.32,SE,136,9.0,14.0,80,0.00,,,0.00,WUHU216DAVISVP2,2013-03-26 03:15:00,
2013-03-25 22:20:00,27.8,22.8,30.32,SE,129,9.0,15.0,81,0.00,,,0.00,WUHU216DAVISVP2,2013-03-26 03:20:00,
2013-03-25 22:25:00,27.8,22.7,30.32,SSE,155,6.0,15.0,81,0.00,,,0.00,WUHU216DAVISVP2,2013-03-26 03:25:00,
2013-03-25 22:30:00,27.7,22.9,30.33,ESE,114,8.0,16.0,82,0.00,,,0.00,WUHU216DAVISVP2,2013-03-26 03:30:00,
2013-03-25 22:35:00,27.6,23.1,30.33,SE,131,5.0,16.0,83,0.00,,,0.00,WUHU216DAVISVP2,2013-03-26 03:35:00,
2013-03-25 22:40:00,27.6,22.8,30.33,ESE,115,9.0,16.0,82,0.00,,,0.00,WUHU216DAVISVP2,2013-03-26 03:40:00,
2013-03-25 22:45:00,27.5,22.8,30.33,SSE,147,10.0,16.0,82,0.00,,,0.00,WUHU216DAVISVP2,2013-03-26 03:45:00,
2013-03-25 22:50:00,27.6,22.8,30.33,SSE,150,7.0,15.0,82,0.00,,,0.00,WUHU216DAVISVP2,2013-03-26 03:50:00,
2013-03-25 22:55:00,27.6,22.8,30.33,SSE,151,10.0,15.0,82,0.00,,,0.00,WUHU216DAVISVP2,2013-03-26 03:55:00,
2013-03-25 23:00:00,27.6,22.8,30.33,SSE,150,8.0,15.0,82,0.00,,,0.00,WUHU216DAVISVP2,2013-03-26 04:00:00,
2013-03-25 23:05:00,27.5,22.7,30.33,SSE,159,6.0,14.0,82,0.00,,,0.00,WUHU216DAVISVP2,2013-03-26 04:05:00,
2013-03-25 23:10:00,27.4,22.9,30.33,SSE,152,6.0,14.0,83,0.00,,,0.00,WUHU216DAVISVP2,2013-03-26 04:10:00,
2013-03-25 23:15:00,27.3,22.8,30.34,SE,137,3.0,14.0,83,0.00,,,0.00,WUHU216DAVISVP2,2013-03-26 04:15:00,
2013-03-25 23:20:00,27.2,22.7,30.34,SE,127,9.0,14.0,83,0.00,,,0.00,WUHU216DAVISVP2,2013-03-26 04:20:00,
2013-03-25 23:25:00,27.2,22.7,30.34,SE,125,8.0,15.0,83,0.00,,,0.00,WUHU216DAVISVP2,2013-03-26 04:25:00,
2013-03-25 23:30:00,27.3,22.8,30.34,SE,135,11.0,15.0,83,0.00,,,0.00,WUHU216DAVISVP2,2013-03-26 04:30:00,
2013-03-25 23:35:00,27.2,22.7,30.34,ESE,118,2.0,15.0,83,0.00,,,0.00,WUHU216DAVISVP2,2013-03-26 04:35:00,
2013-03-25 23:40:00,27.1,22.6,30.34,SE,132,5.0,15.0,83,0.00,,,0.00,WUHU216DAVISVP2,2013-03-26 04:40:00,
2013-03-25 23:45:00,27.1,22.9,30.34,SE,131,5.0,14.0,84,0.00,,,0.00,WUHU216DAVISVP2,2013-03-26 04:45:00,
2013-03-25 23:50:00,27.0,22.8,30.34,SE,138,8.0,15.0,84,0.00,,,0.00,WUHU216DAVISVP2,2013-03-26 04:50:00,
2013-03-25 23:55:00,26.9,22.6,30.34,SE,132,10.0,15.0,84,0.00,,,0.00,WUHU216DAVISVP2,2013-03-26 04:55:00,